New Philadelphia, OH

2:52 PM EST on February 25, 2018 (GMT -0500)
Clever

Weather History for KPHD - October, 2011

Change the Weather History Date:

Friday, October 21, 2011

  Actual Average Record
Temperature  
Mean Temperature 45 °F 51 °F  
Max Temperature 48 °F 63 °F 82 °F (2007)
Min Temperature 42 °F 39 °F 23 °F (1972)
Degree Days  
Heating Degree Days 20 14  
Month to date heating degree days 235  
Since 1 July heating degree days 341  
Cooling Degree Days 0 0  
Month to date cooling degree days 9  
Year to date cooling degree days 697  
Moisture  
Dew Point 40 °F    
Average Humidity 84    
Maximum Humidity 93    
Minimum Humidity 71    
Precipitation  
Precipitation 0.07 in 0.08 in 0.98 in (2016)
Month to date precipitation 1.86  
Year to date precipitation 32.07  
Sea Level Pressure  
Sea Level Pressure 30.00 in    
Wind  
Wind Speed 7 mph (WNW)    
Max Wind Speed 10 mph    
Max Gust Speed 20 mph    
Visibility 8 miles    
Events Rain    
T = Trace of Precipitation, MM = Missing Value Source: NWS Daily Summary

Daily Weather History Graph

Daily Weather History Graph

Search for Another Location

Airport or City:

Trip Planner

Search our weather history database for the weather conditions in past years. The results will help you decide how hot, cold, wet, or windy it might be!

Date:

Astronomy

Oct. 21, 2011 Rise Set
Actual Time 7:42 AM EDT 6:37 PM EDT
Civil Twilight 7:15 AM EDT 7:04 PM EDT
Nautical Twilight 6:43 AM EDT 7:36 PM EDT
Astronomical Twilight 6:11 AM EDT 8:08 PM EDT
Moon 1:30 AM EDT (10/21) 3:21 PM EDT (10/21)
Length of Visible Light 11h 49m
Length of Day
10h 54m
Waning Crescent, 34% of the Moon is Illuminated
Oct 21
Waning Crescent
Oct 26
New
Nov 2
First Quarter
Nov 10
Full
Nov 18
Last Quarter

Hourly Weather History & Observations

Time (EDT) Temp. Windchill Dew Point Humidity Pressure Visibility Wind Dir Wind Speed Gust Speed Precip Events Conditions
12:53 AM 44.1 °F 39.0 °F 37.9 °F 79% 29.82 in 10.0 mi West 9.2 mph 19.6 mph N/A   Overcast
1:53 AM 44.1 °F 40.1 °F 37.9 °F 79% 29.84 in 10.0 mi Variable 6.9 mph - N/A   Overcast
2:50 AM 42.8 °F 37.5 °F 39.2 °F 87% 29.84 in 5.0 mi West 9.2 mph 17.3 mph N/A   Overcast
2:53 AM 43.0 °F 38.2 °F 39.0 °F 86% 29.86 in 5.0 mi West 8.1 mph 17.3 mph N/A   Overcast
3:20 AM 42.8 °F 39.3 °F 39.2 °F 87% 29.85 in 7.0 mi West 5.8 mph - N/A   Overcast
3:53 AM 43.0 °F 37.7 °F 39.0 °F 86% 29.87 in 10.0 mi West 9.2 mph - N/A   Overcast
4:53 AM 44.1 °F 40.1 °F 37.9 °F 79% 29.89 in 10.0 mi West 6.9 mph 16.1 mph 0.00 in   Overcast
5:53 AM 43.0 °F 39.5 °F 39.0 °F 86% 29.91 in 8.0 mi West 5.8 mph - 0.00 in   Overcast
6:53 AM 43.0 °F 38.8 °F 39.0 °F 86% 29.94 in 6.0 mi West 6.9 mph - N/A   Overcast
7:02 AM 42.8 °F 38.6 °F 39.2 °F 87% 29.92 in 5.0 mi West 6.9 mph - N/A   Overcast
8:37 AM 44.6 °F 41.4 °F 39.2 °F 81% 29.97 in 10.0 mi West 5.8 mph - N/A   Overcast
8:53 AM 44.1 °F 41.5 °F 39.9 °F 85% 30.00 in 10.0 mi West 4.6 mph - N/A   Overcast
9:05 AM 44.6 °F 41.4 °F 39.2 °F 81% 29.98 in 10.0 mi Variable 5.8 mph - N/A   Overcast
9:15 AM 44.6 °F 42.2 °F 39.2 °F 81% 29.99 in 6.0 mi West 4.6 mph - 0.00 in Rain Light Rain
9:33 AM 44.6 °F 40.7 °F 39.2 °F 81% 30.00 in 6.0 mi West 6.9 mph - 0.00 in Rain Light Rain
9:50 AM 44.6 °F 42.2 °F 41.0 °F 87% 30.00 in 10.0 mi Variable 4.6 mph - 0.00 in Rain Light Rain
9:53 AM 45.0 °F 41.8 °F 41.0 °F 86% 30.01 in 10.0 mi Variable 5.8 mph - 0.00 in   Overcast
10:29 AM 46.4 °F 41.5 °F 41.0 °F 81% 30.01 in 8.0 mi West 10.4 mph - N/A   Overcast
10:53 AM 45.0 °F 42.6 °F 41.0 °F 86% 30.03 in 5.0 mi Variable 4.6 mph - 0.01 in Rain Light Rain
11:25 AM 44.6 °F 40.2 °F 41.0 °F 87% 30.02 in 4.0 mi WNW 8.1 mph - 0.01 in Rain Light Rain
11:44 AM 44.6 °F 41.4 °F 41.0 °F 87% 30.03 in 2.5 mi WNW 5.8 mph - 0.02 in Rain Light Rain
11:53 AM 45.0 °F 43.5 °F 42.1 °F 90% 30.05 in 2.0 mi NW 3.5 mph - 0.03 in Rain Light Rain
11:55 AM 44.6 °F 42.2 °F 42.8 °F 93% 30.03 in 1.8 mi NW 4.6 mph - 0.01 in Rain Rain
12:07 PM 44.6 °F 43.1 °F 42.8 °F 93% 30.04 in 1.8 mi West 3.5 mph - 0.02 in Rain Light Rain
12:13 PM 44.6 °F 42.2 °F 42.8 °F 93% 30.04 in 2.0 mi West 4.6 mph - 0.02 in Rain Light Rain
12:18 PM 46.4 °F 44.3 °F 42.8 °F 87% 30.04 in 3.0 mi WNW 4.6 mph - 0.02 in Rain Light Rain
12:36 PM 44.6 °F 40.7 °F 42.8 °F 93% 30.04 in 3.0 mi WNW 6.9 mph - 0.03 in Rain Light Rain
12:48 PM 46.4 °F 44.3 °F 42.8 °F 87% 30.03 in 7.0 mi WNW 4.6 mph - 0.03 in Rain Light Rain
12:53 PM 46.9 °F - 42.1 °F 83% 30.05 in 10.0 mi WNW 8.1 mph - 0.03 in   Overcast
1:08 PM 46.4 °F 42.9 °F 42.8 °F 87% 30.03 in 10.0 mi WNW 6.9 mph - N/A   Overcast
1:53 PM 46.9 °F - 41.0 °F 80% 30.04 in 10.0 mi West 9.2 mph - N/A   Overcast
2:53 PM 48.9 °F - 39.9 °F 71% 30.05 in 10.0 mi NW 8.1 mph - N/A   Overcast
3:53 PM 48.9 °F - 41.0 °F 74% 30.06 in 10.0 mi West 5.8 mph - N/A   Overcast
4:18 PM 48.2 °F - 39.2 °F 71% 30.06 in 10.0 mi West 8.1 mph - N/A   Overcast
4:53 PM 46.9 °F - 39.9 °F 77% 30.08 in 10.0 mi Variable 4.6 mph - 0.00 in   Overcast
5:53 PM 48.0 °F - 39.9 °F 74% 30.09 in 10.0 mi NW 4.6 mph - N/A   Overcast
7:53 PM 46.9 °F - 39.9 °F 77% 30.12 in 10.0 mi Calm Calm - N/A   Overcast
8:53 PM 46.9 °F - 41.0 °F 80% 30.12 in 10.0 mi Calm Calm - N/A   Overcast
9:53 PM 46.9 °F - 41.0 °F 80% 30.13 in 10.0 mi Calm Calm - N/A   Overcast
10:53 PM 46.0 °F - 42.1 °F 86% 30.13 in 10.0 mi Calm Calm - N/A   Overcast
11:53 PM 45.0 °F - 41.0 °F 86% 30.13 in 10.0 mi Calm Calm - N/A   Overcast